IW0DEG Vigarano Mainarda IT current weather conditions

sailwx.info

Wind from 067 at 1 knots gusting 4

Air temperature 27.2° C
Dewpoint 19.0° C

Last reported at 2020-Aug-06 18:03 UTC.
Time now 2020-Aug-06 18:48 UTC

Location: N 44°51' E 011°29'.
View on Google Maps.

See reports from other nearby stations

  
Tides and Currents Weather Stations Pressure Air Temp Water Temp Dewpoint Dewpoint Depression Visibility Wind Speed Wind Dir Waves Ship Positions
date/time (UTC)wind fromknots sea level pressurealtimeterstation pressurevisibilityair tempwater tempwave heightnotes
2020-Aug-06 18:03 067 1 gusting 4 27.2
2020-Aug-06 17:55 069 1 gusting 4 27.2
2020-Aug-06 17:53 051 2 gusting 4 27.2
2020-Aug-06 17:45 081 2 gusting 5 27.2
2020-Aug-06 17:43 066 3 gusting 5 27.2
2020-Aug-06 17:35 058 3 gusting 6 27.2
2020-Aug-06 17:34 064 3 gusting 6 27.2
2020-Aug-06 17:25 098 4 gusting 8 27.8
2020-Aug-06 17:23 062 3 gusting 8 27.8
2020-Aug-06 17:15 063 6 gusting 8 27.8
2020-Aug-06 17:14 071 6 gusting 8 27.8
2020-Aug-06 17:05 067 2 gusting 8 27.8
2020-Aug-06 17:04 061 5 gusting 8 27.8
2020-Aug-06 16:55 056 5 gusting 8 28.3
2020-Aug-06 16:53 076 4 gusting 8 28.3
2020-Aug-06 16:45 084 5 gusting 8 28.3
2020-Aug-06 16:44 057 5 gusting 8 28.3
2020-Aug-06 16:35 035 4 gusting 10 28.3
2020-Aug-06 16:33 090 5 gusting 10 28.3
2020-Aug-06 16:26 044 5 gusting 10 28.3
2020-Aug-06 16:24 074 6 gusting 10 28.3
2020-Aug-06 16:15 037 4 gusting 7 28.3
2020-Aug-06 16:14 049 4 gusting 8 28.3
2020-Aug-06 16:05 109 4 gusting 9 28.3
2020-Aug-06 16:03 082 4 gusting 9 28.3
2020-Aug-06 15:56 065 4 gusting 11 28.3
2020-Aug-06 15:54 075 5 gusting 11 28.3
2020-Aug-06 15:45 073 7 gusting 11 28.3
2020-Aug-06 15:43 078 7 gusting 11 28.3
2020-Aug-06 15:35 021 6 gusting 11 28.3
2020-Aug-06 15:33 096 6 gusting 11 28.3
2020-Aug-06 15:25 061 5 gusting 13 28.3
2020-Aug-06 15:23 069 4 gusting 13 28.3
2020-Aug-06 15:15 077 6 gusting 11 28.3
2020-Aug-06 15:13 067 7 gusting 11 28.3
2020-Aug-06 15:05 057 6 gusting 13 28.3
2020-Aug-06 15:03 038 7 gusting 13 28.3
2020-Aug-06 14:55 093 10 gusting 13 28.9
2020-Aug-06 14:53 118 6 gusting 10 28.9
2020-Aug-06 14:45 067 6 gusting 13 28.3
2020-Aug-06 14:43 063 7 gusting 13 28.3
2020-Aug-06 14:35 047 7 gusting 13 28.3
2020-Aug-06 14:33 094 6 gusting 13 28.9
2020-Aug-06 14:25 103 4 gusting 12 28.9
2020-Aug-06 14:23 030 5 gusting 12 28.9
2020-Aug-06 14:15 096 3 gusting 10 28.9
2020-Aug-06 14:13 048 2 gusting 10 28.3
2020-Aug-06 14:05 005 5 gusting 10 28.3
2020-Aug-06 14:03 030 5 gusting 12 28.3
2020-Aug-06 13:55 070 6 gusting 13 28.3
2020-Aug-06 13:53 061 5 gusting 13 28.3
2020-Aug-06 13:45 042 7 gusting 13 28.3
2020-Aug-06 13:43 051 9 gusting 13 28.9
2020-Aug-06 13:35 059 5 gusting 11 28.9
2020-Aug-06 13:33 074 6 gusting 11 28.9
2020-Aug-06 13:25 074 7 gusting 13 28.9
2020-Aug-06 13:23 076 4 gusting 13 28.9
2020-Aug-06 13:15 046 6 gusting 13 28.9
2020-Aug-06 13:13 086 4 gusting 12 28.9
2020-Aug-06 13:05 085 4 gusting 15 28.3
2020-Aug-06 13:03 032 7 gusting 15 28.3
2020-Aug-06 12:55 022 6 gusting 12 28.9
2020-Aug-06 12:53 080 3 gusting 12 28.9
2020-Aug-06 12:45 042 5 gusting 13 28.9
2020-Aug-06 12:43 026 6 gusting 13 28.9
2020-Aug-06 12:35 016 6 gusting 11 28.9
2020-Aug-06 12:33 042 6 gusting 11 28.9
2020-Aug-06 12:25 022 5 gusting 9 28.9
2020-Aug-06 12:24 050 6 gusting 9 28.9
2020-Aug-06 12:15 098 6 gusting 11 28.9
2020-Aug-06 12:13 110 6 gusting 11 28.9
2020-Aug-06 12:05 066 4 gusting 10 28.9
2020-Aug-06 12:04 057 7 gusting 10 28.9
2020-Aug-06 11:55 082 6 gusting 11 28.3
2020-Aug-06 11:54 044 6 gusting 12 28.3
2020-Aug-06 11:45 069 7 gusting 12 28.3
2020-Aug-06 11:43 061 9 gusting 12 28.9
2020-Aug-06 11:35 075 5 gusting 9 28.9
2020-Aug-06 11:34 036 6 gusting 9 28.3
2020-Aug-06 11:25 049 6 gusting 11 28.3
2020-Aug-06 11:23 085 4 gusting 13 28.3
2020-Aug-06 11:15 086 5 gusting 13 27.8
2020-Aug-06 11:13 058 3 gusting 13 27.8
2020-Aug-06 11:05 085 9 gusting 13 27.8
2020-Aug-06 11:03 055 5 gusting 10 27.8
2020-Aug-06 10:55 096 4 gusting 10 27.8
2020-Aug-06 10:53 099 4 gusting 10 27.8
2020-Aug-06 10:45 133 6 gusting 11 27.8
2020-Aug-06 10:44 103 5 gusting 11 27.8
2020-Aug-06 10:35 080 2 gusting 9 27.8
2020-Aug-06 10:33 032 4 gusting 9 27.8
2020-Aug-06 10:25 052 5 gusting 8 27.8
2020-Aug-06 10:23 092 4 gusting 7 27.8
2020-Aug-06 10:15 024 4 gusting 9 27.2
2020-Aug-06 10:13 064 4 gusting 9 27.2
2020-Aug-06 10:05 080 5 gusting 9 27.8
2020-Aug-06 10:03 046 4 gusting 6 27.8
2020-Aug-06 09:55 093 4 gusting 6 27.2
2020-Aug-06 09:53 053 3 gusting 7 27.2
2020-Aug-06 09:45 035 5 gusting 8 27.2
2020-Aug-06 09:43 360 1 gusting 12 27.2
2020-Aug-06 09:35 044 9 gusting 12 26.7
2020-Aug-06 09:33 347 4 gusting 7 26.7
2020-Aug-06 09:25 337 2 gusting 9 26.7
2020-Aug-06 09:23 331 3 gusting 9 26.7
2020-Aug-06 09:15 005 1 gusting 7 26.7
2020-Aug-06 09:13 113 4 gusting 7 26.7
2020-Aug-06 09:05 343 1 gusting 6 26.1
2020-Aug-06 09:03 005 2 gusting 6 25.6
2020-Aug-06 08:55 348 3 gusting 6 25.6
2020-Aug-06 08:53 336 4 gusting 6 25.6
2020-Aug-06 08:45 312 2 gusting 6 25.6
2020-Aug-06 08:43 005 3 gusting 6 25.0
2020-Aug-06 08:35 311 3 gusting 7 25.0
2020-Aug-06 08:33 288 3 gusting 6 25.0
2020-Aug-06 08:25 337 3 gusting 6 25.0
2020-Aug-06 08:23 313 2 gusting 7 24.4
2020-Aug-06 08:15 324 4 gusting 9 24.4
2020-Aug-06 08:13 281 6 gusting 9 24.4
2020-Aug-06 08:05 317 1 gusting 8 24.4
2020-Aug-06 08:03 289 3 gusting 8 23.9
2020-Aug-06 07:55 355 3 gusting 8 24.4
2020-Aug-06 07:53 325 2 gusting 8 24.4
2020-Aug-06 07:45 344 2 gusting 5 24.4
2020-Aug-06 07:43 321 1 gusting 5 24.4
2020-Aug-06 07:35 296 2 gusting 6 23.9
2020-Aug-06 07:33 296 3 gusting 6 23.9
2020-Aug-06 07:25 341 2 gusting 6 23.3
2020-Aug-06 07:23 343 4 gusting 6 23.3
2020-Aug-06 07:15 339 3 gusting 5 22.8
2020-Aug-06 07:13 317 1 gusting 5 22.8
2020-Aug-06 07:05 005 3 gusting 5 22.8
2020-Aug-06 07:03 302 1 gusting 4 22.8
2020-Aug-06 06:55 334 2 gusting 5 22.2
2020-Aug-06 06:53 291 2 gusting 5 22.2
2020-Aug-06 06:45 340 1 gusting 5 21.7
2020-Aug-06 06:43 313 0 gusting 4 21.7
2020-Aug-06 06:35 355 1 gusting 6 21.7
2020-Aug-06 06:33 323 3 gusting 6 21.7
2020-Aug-06 06:25 314 1 gusting 6 21.7
2020-Aug-06 06:23 283 4 gusting 6 21.7
2020-Aug-06 06:15 323 1 gusting 2 21.1
2020-Aug-06 06:14 306 0 gusting 3 21.1
2020-Aug-06 06:05 344 2 gusting 5 20.6
2020-Aug-06 06:03 355 2 gusting 5 20.6
2020-Aug-06 05:55 011 0 gusting 2 20.6
2020-Aug-06 05:54 036 0 gusting 2 20.0
2020-Aug-06 05:45 325 1 gusting 3 20.0
2020-Aug-06 05:44 326 1 gusting 3 20.0
2020-Aug-06 05:35 338 0 gusting 2 20.0
2020-Aug-06 05:33 342 0 gusting 2 20.0
2020-Aug-06 05:25 304 0 gusting 2 19.4
2020-Aug-06 05:23 300 0 gusting 3 19.4
2020-Aug-06 05:15 297 0 gusting 2 19.4
2020-Aug-06 05:13 310 0 gusting 2 19.4
2020-Aug-06 05:05 340 0 gusting 3 19.4
2020-Aug-06 05:03 309 1 gusting 3 19.4
2020-Aug-06 04:55 332 1 gusting 4 18.9
2020-Aug-06 04:54 344 0 gusting 4 18.9
2020-Aug-06 04:45 316 1 gusting 5 18.9
2020-Aug-06 04:43 312 0 gusting 2 18.9
2020-Aug-06 04:35 331 0 gusting 3 18.9
2020-Aug-06 04:33 314 0 gusting 4 18.9
2020-Aug-06 04:25 292 2 gusting 4 18.9
2020-Aug-06 04:23 313 0 gusting 4 18.9
2020-Aug-06 04:15 308 0 gusting 2 18.3
2020-Aug-06 04:13 308 0 gusting 3 18.3
2020-Aug-06 04:05 315 1 gusting 4 18.3
2020-Aug-06 04:03 286 1 gusting 4 18.3
2020-Aug-06 03:55 319 1 gusting 3 18.3
2020-Aug-06 03:53 311 1 gusting 3 18.3
2020-Aug-06 03:45 323 0 gusting 2 18.3
2020-Aug-06 03:43 317 0 gusting 2 18.3
2020-Aug-06 03:35 296 0 gusting 4 18.3
2020-Aug-06 03:33 297 1 gusting 4 18.3
2020-Aug-06 03:25 291 1 gusting 2 18.3
2020-Aug-06 03:23 290 1 gusting 2 18.3
2020-Aug-06 03:15 329 18.3
2020-Aug-06 03:13 329 0 gusting 2 18.3
2020-Aug-06 03:05 334 0 gusting 2 18.3
2020-Aug-06 03:03 333 0 gusting 2 18.3
2020-Aug-06 02:55 290 0 gusting 2 18.3
2020-Aug-06 02:53 290 1 gusting 2 18.3
2020-Aug-06 02:45 336 18.3
2020-Aug-06 02:43 336 0 gusting 1 18.3
2020-Aug-06 02:35 336 0 gusting 2 18.3
2020-Aug-06 02:33 336 0 gusting 2 18.3
2020-Aug-06 02:25 319 0 gusting 3 18.3
2020-Aug-06 02:23 319 1 gusting 3 18.3
2020-Aug-06 02:15 289 1 gusting 2 18.3
2020-Aug-06 02:13 295 1 gusting 2 18.3
2020-Aug-06 02:05 286 1 gusting 1 18.3
2020-Aug-06 02:03 280 0 gusting 1 18.3
2020-Aug-06 01:55 283 0 gusting 2 18.3
2020-Aug-06 01:53 285 1 gusting 2 18.3
2020-Aug-06 01:45 285 0 gusting 2 18.3
2020-Aug-06 01:43 284 0 gusting 2 18.3
2020-Aug-06 01:35 285 1 gusting 2 18.3
2020-Aug-06 01:33 306 1 gusting 2 18.3
2020-Aug-06 01:25 294 0 gusting 1 18.3
2020-Aug-06 01:23 294 0 gusting 1 18.3
2020-Aug-06 01:15 326 18.9
2020-Aug-06 01:13 327 1 gusting 3 18.9
2020-Aug-06 01:05 282 1 gusting 2 18.9
2020-Aug-06 01:03 285 2 gusting 2 18.9
2020-Aug-06 00:55 293 0 gusting 3 18.9
2020-Aug-06 00:53 292 1 gusting 3 18.9
2020-Aug-06 00:45 303 1 gusting 4 18.9
2020-Aug-06 00:43 286 2 gusting 4 18.9
2020-Aug-06 00:35 311 0 gusting 1 18.9
2020-Aug-06 00:33 311 0 gusting 2 18.9
2020-Aug-06 00:25 311 0 gusting 3 19.4
2020-Aug-06 00:23 311 1 gusting 3 19.4
2020-Aug-06 00:15 291 0 gusting 3 19.4
2020-Aug-06 00:13 288 2 gusting 3 19.4
2020-Aug-06 00:05 331 1 gusting 1 19.4
2020-Aug-06 00:03 355 0 gusting 1 19.4
2020-Aug-05 23:55 338 19.4
2020-Aug-05 23:53 338 19.4
2020-Aug-05 23:45 298 1 gusting 2 19.4
2020-Aug-05 23:43 333 0 gusting 1 19.4
2020-Aug-05 23:35 335 0 gusting 3 19.4
2020-Aug-05 23:33 335 0 gusting 3 19.4
2020-Aug-05 23:25 300 19.4
2020-Aug-05 23:23 300 0 gusting 1 19.4
2020-Aug-05 23:15 300 1 gusting 2 19.4
2020-Aug-05 23:14 299 0 gusting 2 19.4
2020-Aug-05 23:05 292 1 gusting 2 19.4
2020-Aug-05 23:03 285 1 gusting 2 19.4
2020-Aug-05 22:56 342 0 gusting 0 20.0
2020-Aug-05 22:54 342 0 gusting 1 20.0
2020-Aug-05 22:45 342 0 gusting 2 20.6
2020-Aug-05 22:43 342 0 gusting 2 20.6
2020-Aug-05 22:35 355 1 gusting 2 20.6
2020-Aug-05 22:33 013 0 gusting 2 20.6
2020-Aug-05 22:25 028 0 gusting 3 20.6
2020-Aug-05 22:23 028 1 gusting 3 20.6
2020-Aug-05 22:15 028 2 gusting 3 20.0
2020-Aug-05 22:13 041 2 gusting 2 20.0
2020-Aug-05 22:05 030 0 gusting 2 20.0
2020-Aug-05 22:03 344 0 gusting 0 20.0
2020-Aug-05 21:55 344 20.0
2020-Aug-05 21:53 344 20.0
2020-Aug-05 21:45 344 20.6
2020-Aug-05 21:43 344 20.6
2020-Aug-05 21:35 344 20.6
2020-Aug-05 21:33 344 0 gusting 1 20.6
2020-Aug-05 21:25 331 0 gusting 1 20.6
2020-Aug-05 21:23 331 0 gusting 1 20.6
2020-Aug-05 21:15 302 0 gusting 1 20.6
2020-Aug-05 21:13 302 0 gusting 1 20.6
2020-Aug-05 21:05 302 0 gusting 1 21.1
2020-Aug-05 21:03 302 0 gusting 1 21.1
2020-Aug-05 20:55 302 1 gusting 3 21.7
2020-Aug-05 20:53 021 1 gusting 3 21.7
2020-Aug-05 20:45 045 0 gusting 2 21.7
2020-Aug-05 20:43 045 0 gusting 2 21.7
2020-Aug-05 20:35 039 1 gusting 3 21.7
2020-Aug-05 20:33 046 0 gusting 3 21.7
2020-Aug-05 20:25 355 0 gusting 2 21.7
2020-Aug-05 20:23 355 0 gusting 2 21.7
2020-Aug-05 20:15 355 22.2
2020-Aug-05 20:13 355 22.2
2020-Aug-05 20:05 013 1 gusting 4 22.8
2020-Aug-05 20:03 024 1 gusting 4 22.8
2020-Aug-05 19:55 016 1 gusting 3 22.8
2020-Aug-05 19:53 030 2 gusting 4 22.8
2020-Aug-05 19:45 036 2 gusting 5 22.8
2020-Aug-05 19:43 065 3 gusting 5 22.8
2020-Aug-05 19:35 070 2 gusting 4 22.8
2020-Aug-05 19:33 069 2 gusting 4 22.8
2020-Aug-05 19:25 054 2 gusting 3 22.8
2020-Aug-05 19:23 079 2 gusting 3 22.8
2020-Aug-05 19:15 051 1 gusting 3 23.3
2020-Aug-05 19:13 048 0 gusting 2 23.3
2020-Aug-05 19:05 065 1 gusting 3 23.3
2020-Aug-05 19:03 060 1 gusting 3 23.3
2020-Aug-05 18:55 063 0 gusting 3 23.3
2020-Aug-05 18:53 065 0 gusting 3 23.3
2020-Aug-05 18:45 049 1 gusting 4 23.9
2020-Aug-05 18:43 051 1 gusting 4 23.9
2020-Aug-05 18:35 047 1 gusting 4 23.9
2020-Aug-05 18:33 043 2 gusting 4 23.9
2020-Aug-05 18:25 052 1 gusting 3 23.9
2020-Aug-05 18:23 074 1 gusting 3 23.9
2020-Aug-05 18:15 066 1 gusting 5 23.9
2020-Aug-05 18:13 036 1 gusting 5 23.9
2020-Aug-05 18:05 079 2 gusting 6 24.4
2020-Aug-05 18:03 079 2 gusting 7 24.4
2020-Aug-05 17:55 096 5 gusting 9 24.4
2020-Aug-05 17:53 086 6 gusting 9 24.4
2020-Aug-05 17:45 063 3 gusting 7 24.4
2020-Aug-05 17:43 111 3 gusting 7 25.0
2020-Aug-05 17:35 074 4 gusting 5 25.0
2020-Aug-05 17:33 081 1 gusting 4 25.0
2020-Aug-05 17:25 060 2 gusting 8 25.0
2020-Aug-05 17:23 082 3 gusting 8 25.0
2020-Aug-05 17:15 084 3 gusting 9 25.0
2020-Aug-05 17:13 096 2 gusting 9 25.0
2020-Aug-05 17:05 067 4 gusting 9 25.6
2020-Aug-05 17:03 076 5 gusting 9 25.6
2020-Aug-05 16:55 057 4 gusting 7 25.6
2020-Aug-05 16:53 051 4 gusting 7 25.6
2020-Aug-05 16:45 088 5 gusting 7 25.6
2020-Aug-05 16:43 091 2 gusting 7 25.6
2020-Aug-05 16:35 059 2 gusting 8 26.1
2020-Aug-05 16:33 104 3 gusting 8 26.1
2020-Aug-05 16:25 095 2 gusting 8 26.1
2020-Aug-05 16:24 068 5 gusting 11 26.1
2020-Aug-05 16:15 115 5 gusting 11 25.6
2020-Aug-05 16:14 073 1 gusting 8 25.6
2020-Aug-05 16:05 054 6 gusting 11 25.6
2020-Aug-05 16:04 112 6 gusting 11 25.6
2020-Aug-05 15:55 030 5 gusting 10 25.6
2020-Aug-05 15:54 103 4 gusting 10 25.6
2020-Aug-05 15:45 107 6 gusting 10 26.1
2020-Aug-05 15:43 111 3 gusting 9 26.1
2020-Aug-05 15:36 076 4 gusting 10 26.1
2020-Aug-05 15:33 047 3 gusting 11 26.1
2020-Aug-05 15:25 094 7 gusting 11 26.1
2020-Aug-05 15:23 157 3 gusting 8 26.1
2020-Aug-05 15:15 130 5 gusting 8 26.1
2020-Aug-05 15:13 094 4 gusting 8 26.1
2020-Aug-05 15:05 091 4 gusting 9 26.1
2020-Aug-05 15:03 089 4 gusting 9 26.1
2020-Aug-05 14:55 071 5 gusting 9 26.1
2020-Aug-05 14:53 097 5 gusting 9 26.1
2020-Aug-05 14:45 055 4 gusting 10 26.1
2020-Aug-05 14:43 067 4 gusting 10 26.1
2020-Aug-05 14:35 077 3 gusting 8 26.7
2020-Aug-05 14:33 109 6 gusting 9 26.7
2020-Aug-05 14:25 355 6 gusting 11 26.7
2020-Aug-05 14:23 046 3 gusting 11 26.7
2020-Aug-05 14:15 103 4 gusting 13 26.7
2020-Aug-05 14:13 011 3 gusting 13 26.7
2020-Aug-05 14:05 043 4 gusting 12 26.7
2020-Aug-05 14:03 065 6 gusting 12 26.7
2020-Aug-05 13:55 123 4 gusting 10 26.7
2020-Aug-05 13:53 030 5 gusting 10 26.7
2020-Aug-05 13:45 019 6 gusting 10 26.7
2020-Aug-05 13:43 035 5 gusting 10 26.7
2020-Aug-05 13:35 018 5 gusting 10 26.7
2020-Aug-05 13:33 036 6 gusting 10 26.1
2020-Aug-05 13:25 053 3 gusting 10 26.1
2020-Aug-05 13:23 049 4 gusting 10 26.1
2020-Aug-05 13:15 069 2 gusting 6 26.1
2020-Aug-05 13:13 111 4 gusting 8 26.1
2020-Aug-05 13:05 068 6 gusting 10 26.1
2020-Aug-05 13:03 093 4 gusting 10 26.1
2020-Aug-05 12:55 013 4 gusting 8 26.7
2020-Aug-05 12:53 072 3 gusting 8 26.1
2020-Aug-05 12:45 056 4 gusting 9 26.1
2020-Aug-05 12:43 020 5 gusting 9 26.1
2020-Aug-05 12:35 051 5 gusting 10 26.1
2020-Aug-05 12:33 005 4 gusting 10 26.1
2020-Aug-05 12:25 036 5 gusting 10 26.1
2020-Aug-05 12:23 076 3 gusting 9 26.1
2020-Aug-05 12:15 049 5 gusting 8 26.1
2020-Aug-05 12:13 033 6 gusting 7 26.1
2020-Aug-05 12:05 046 3 gusting 10 25.6
2020-Aug-05 12:03 055 5 gusting 10 25.6
2020-Aug-05 11:55 060 6 gusting 10 25.6
2020-Aug-05 11:53 055 3 gusting 9 25.6
2020-Aug-05 11:45 108 3 gusting 10 25.6
2020-Aug-05 11:43 057 3 gusting 12 25.6
2020-Aug-05 11:35 057 7 gusting 12 26.1
2020-Aug-05 11:33 019 7 gusting 11 25.6
2020-Aug-05 11:25 085 6 gusting 13 25.6
2020-Aug-05 11:23 047 6 gusting 13 25.6
2020-Aug-05 11:15 053 6 gusting 12 25.6
2020-Aug-05 11:13 088 6 gusting 12 25.6
2020-Aug-05 11:05 037 6 gusting 9 25.6
2020-Aug-05 11:03 005 4 gusting 8 25.6
2020-Aug-05 10:55 016 3 gusting 8 25.6
2020-Aug-05 10:53 028 4 gusting 8 25.6
2020-Aug-05 10:45 346 3 gusting 9 25.6
2020-Aug-05 10:43 355 5 gusting 12 25.6
2020-Aug-05 10:35 044 4 gusting 8 25.6
2020-Aug-05 10:33 021 3 gusting 8 25.6
2020-Aug-05 10:25 095 4 gusting 8 25.6
2020-Aug-05 10:23 067 4 gusting 8 25.6
2020-Aug-05 10:15 019 3 gusting 8 25.0
2020-Aug-05 10:13 024 5 gusting 8 25.0
2020-Aug-05 10:05 093 4 gusting 10 24.4
2020-Aug-05 10:03 075 4 gusting 10 25.0
2020-Aug-05 09:55 033 5 gusting 8 25.0
2020-Aug-05 09:53 093 4 gusting 8 25.0
2020-Aug-05 09:45 038 3 gusting 7 25.0
2020-Aug-05 09:43 092 3 gusting 7 24.4
2020-Aug-05 09:35 074 2 gusting 9 24.4
2020-Aug-05 09:33 086 4 gusting 9 24.4
2020-Aug-05 09:25 048 5 gusting 8 24.4
2020-Aug-05 09:23 044 3 gusting 7 24.4
2020-Aug-05 09:15 038 4 gusting 8 24.4
2020-Aug-05 09:13 130 3 gusting 8 24.4
2020-Aug-05 09:05 065 5 gusting 8 24.4
2020-Aug-05 09:03 009 4 gusting 8 24.4
2020-Aug-05 08:55 067 1 gusting 7 24.4
2020-Aug-05 08:53 023 3 gusting 9 24.4
2020-Aug-05 08:45 085 6 gusting 10 23.9
2020-Aug-05 08:43 077 3 gusting 10 23.9
2020-Aug-05 08:35 106 3 gusting 9 23.9
2020-Aug-05 08:33 081 5 gusting 9 23.9
2020-Aug-05 08:25 092 3 gusting 7 23.3
2020-Aug-05 08:24 081 4 gusting 8 23.3
2020-Aug-05 08:15 017 5 gusting 8 23.3
2020-Aug-05 08:13 355 3 gusting 8 23.3
2020-Aug-05 08:05 101 0 gusting 6 23.3
2020-Aug-05 08:04 089 0 gusting 6 22.8
2020-Aug-05 07:55 036 1 gusting 6 22.8
2020-Aug-05 07:53 005 3 gusting 6 22.2
2020-Aug-05 07:45 314 22.2
2020-Aug-05 07:43 005 1 gusting 3 21.7
2020-Aug-05 07:35 323 1 gusting 4 21.1
2020-Aug-05 07:33 288 0 gusting 4 21.1
2020-Aug-05 07:25 286 2 gusting 4 20.6
2020-Aug-05 07:23 294 1 gusting 4 20.6
2020-Aug-05 07:15 291 2 gusting 5 20.0
2020-Aug-05 07:13 346 2 gusting 5 20.0
2020-Aug-05 07:05 309 2 gusting 5 20.0
2020-Aug-05 07:03 317 1 gusting 4 19.4
2020-Aug-05 06:55 294 2 gusting 4 19.4
2020-Aug-05 06:53 303 2 gusting 3 19.4
2020-Aug-05 06:45 320 1 gusting 3 19.4
2020-Aug-05 06:43 317 2 gusting 4 19.4
2020-Aug-05 06:35 289 18.9
2020-Aug-05 06:33 289 1 gusting 6 18.9
2020-Aug-05 06:25 294 1 gusting 3 18.9
2020-Aug-05 06:23 360 2 gusting 4 18.9
2020-Aug-05 06:15 294 3 gusting 5 18.9
2020-Aug-05 06:13 273 3 gusting 5 18.9
2020-Aug-05 06:05 285 18.9
2020-Aug-05 06:03 285 1 gusting 2 18.9
2020-Aug-05 05:55 290 1 gusting 4 18.3
2020-Aug-05 05:53 273 1 gusting 4 18.3
2020-Aug-05 05:45 292 0 gusting 4 18.3
2020-Aug-05 05:43 292 1 gusting 4 18.3
2020-Aug-05 05:35 284 1 gusting 3 18.3
2020-Aug-05 05:33 281 2 gusting 4 18.3
2020-Aug-05 05:25 278 2 gusting 4 18.3
2020-Aug-05 05:23 277 2 gusting 4 18.3
2020-Aug-05 05:15 299 1 gusting 4 18.3
2020-Aug-05 05:13 275 2 gusting 4 18.3
2020-Aug-05 05:05 281 3 gusting 4 18.3
2020-Aug-05 05:03 286 2 gusting 4 18.3
2020-Aug-05 04:55 262 3 gusting 4 18.3
2020-Aug-05 04:53 259 1 gusting 4 18.3
2020-Aug-05 04:45 272 1 gusting 4 18.3
2020-Aug-05 04:43 273 2 gusting 4 18.3
2020-Aug-05 04:35 292 2 gusting 3 18.3
2020-Aug-05 04:33 291 2 gusting 3 18.3
2020-Aug-05 04:25 307 1 gusting 2 18.3
2020-Aug-05 04:23 315 0 gusting 2 18.3
2020-Aug-05 04:15 265 0 gusting 2 18.3
2020-Aug-05 04:13 265 1 gusting 2 18.3
2020-Aug-05 04:05 305 0 gusting 1 18.3
2020-Aug-05 04:03 310 0 gusting 1 18.3
2020-Aug-05 03:55 310 0 gusting 1 17.8
2020-Aug-05 03:53 299 0 gusting 1 18.3
2020-Aug-05 03:45 279 0 gusting 2 17.8
2020-Aug-05 03:43 279 0 gusting 2 17.8
2020-Aug-05 03:35 291 0 gusting 2 17.8
2020-Aug-05 03:33 279 0 gusting 1 18.3
2020-Aug-05 03:25 275 17.8
2020-Aug-05 03:23 275 0 gusting 3 17.8
2020-Aug-05 03:15 234 0 gusting 1 18.3
2020-Aug-05 03:13 221 18.3
2020-Aug-05 03:05 222 0 gusting 1 17.8
2020-Aug-05 03:03 226 0 gusting 1 17.8
2020-Aug-05 02:55 161 1 gusting 2 17.8
2020-Aug-05 02:53 167 1 gusting 2 17.8
2020-Aug-05 02:45 273 0 gusting 1 17.8
2020-Aug-05 02:43 263 0 gusting 1 17.8
2020-Aug-05 02:35 262 0 gusting 2 17.8
2020-Aug-05 02:33 262 1 gusting 2 17.8
2020-Aug-05 02:25 271 1 gusting 2 17.8
2020-Aug-05 02:23 227 0 gusting 3 17.8
2020-Aug-05 02:15 202 0 gusting 3 17.8
2020-Aug-05 02:13 184 1 gusting 3 17.8
2020-Aug-05 02:05 213 0 gusting 2 17.8
2020-Aug-05 02:03 261 1 gusting 2 17.8
2020-Aug-05 01:55 261 1 gusting 3 17.8
2020-Aug-05 01:53 276 2 gusting 3 17.8
2020-Aug-05 01:45 285 0 gusting 4 17.8
2020-Aug-05 01:43 294 2 gusting 4 17.8
2020-Aug-05 01:35 268 0 gusting 2 17.8
2020-Aug-05 01:33 267 0 gusting 2 17.8
2020-Aug-05 01:25 250 0 gusting 1 17.8
2020-Aug-05 01:23 250 0 gusting 2 17.8
2020-Aug-05 01:15 271 1 gusting 3 17.8
2020-Aug-05 01:13 255 1 gusting 3 17.8
2020-Aug-05 01:05 252 1 gusting 2 17.8
2020-Aug-05 01:03 235 2 gusting 2 17.8
2020-Aug-05 00:55 273 2 gusting 3 17.8
2020-Aug-05 00:53 284 1 gusting 3 17.8
2020-Aug-05 00:45 277 0 gusting 2 17.8
2020-Aug-05 00:43 279 0 gusting 2 17.8
2020-Aug-05 00:35 244 17.8
2020-Aug-05 00:33 244 17.8
2020-Aug-05 00:25 205 0 gusting 3 17.8
2020-Aug-05 00:23 204 0 gusting 3 17.8
2020-Aug-05 00:15 167 0 gusting 1 17.8
2020-Aug-05 00:13 166 17.8
2020-Aug-05 00:05 166 2 gusting 4 17.8
2020-Aug-05 00:03 161 3 gusting 4 17.8
2020-Aug-04 23:55 175 1 gusting 8 17.8
2020-Aug-04 23:53 128 4 gusting 8 17.8
2020-Aug-04 23:45 340 1 gusting 4 17.8
2020-Aug-04 23:43 328 2 gusting 4 17.8
2020-Aug-04 23:35 328 1 gusting 4 17.8
2020-Aug-04 23:33 304 2 gusting 4 17.8
2020-Aug-04 23:25 313 0 gusting 4 17.8
2020-Aug-04 23:23 329 1 gusting 4 17.8
2020-Aug-04 23:15 311 1 gusting 4 17.8
2020-Aug-04 23:13 269 1 gusting 4 17.8
2020-Aug-04 23:05 340 0 gusting 3 17.8
2020-Aug-04 23:03 316 1 gusting 3 17.8
2020-Aug-04 22:55 021 1 gusting 2 17.8
2020-Aug-04 22:53 355 0 gusting 2 17.8
2020-Aug-04 22:45 338 0 gusting 2 17.8
2020-Aug-04 22:43 341 0 gusting 2 17.8
2020-Aug-04 22:35 314 1 gusting 3 17.8
2020-Aug-04 22:33 330 0 gusting 3 17.8
2020-Aug-04 22:25 322 1 gusting 6 17.8
2020-Aug-04 22:23 346 2 gusting 6 17.8
2020-Aug-04 22:15 306 2 gusting 7 17.8
2020-Aug-04 22:13 333 3 gusting 9 17.8
2020-Aug-04 22:05 015 2 gusting 6 17.8
2020-Aug-04 22:03 355 3 gusting 5 17.8
2020-Aug-04 21:55 355 3 gusting 6 17.8
2020-Aug-04 21:53 005 3 gusting 6 17.8
2020-Aug-04 21:45 350 2 gusting 5 17.8
2020-Aug-04 21:43 005 3 gusting 5 17.8
2020-Aug-04 21:35 345 2 gusting 6 18.3
2020-Aug-04 21:33 355 2 gusting 6 18.3
2020-Aug-04 21:25 360 4 gusting 8 18.3
2020-Aug-04 21:23 350 3 gusting 8 18.3
2020-Aug-04 21:15 032 6 gusting 10 18.3
2020-Aug-04 21:14 018 4 gusting 10 18.3
2020-Aug-04 21:05 014 5 gusting 7 18.3
2020-Aug-04 21:03 024 5 gusting 7 18.3
2020-Aug-04 20:55 346 2 gusting 3 18.3
2020-Aug-04 20:54 349 1 gusting 3 18.3
2020-Aug-04 20:45 323 0 gusting 2 18.3
2020-Aug-04 20:43 325 1 gusting 2 18.3
2020-Aug-04 20:35 282 0 gusting 3 18.3
2020-Aug-04 20:33 270 1 gusting 3 18.3
2020-Aug-04 20:25 280 1 gusting 6 18.3
2020-Aug-04 20:23 266 2 gusting 6 18.3
2020-Aug-04 20:15 319 18.3
2020-Aug-04 20:13 024 1 gusting 5 18.3
2020-Aug-04 20:05 273 2 gusting 3 18.3
2020-Aug-04 20:03 294 1 gusting 3 18.3
2020-Aug-04 19:55 314 0 gusting 2 18.3
2020-Aug-04 19:53 314 1 gusting 4 18.3
2020-Aug-04 19:45 287 2 gusting 4 18.3
2020-Aug-04 19:43 286 1 gusting 4 18.3
2020-Aug-04 19:35 301 2 gusting 7 18.3
2020-Aug-04 19:33 302 1 gusting 7 18.3
2020-Aug-04 19:25 258 3 gusting 4 18.9
2020-Aug-04 19:23 253 3 gusting 5 18.9
2020-Aug-04 19:15 269 3 gusting 5 18.9
2020-Aug-04 19:13 257 3 gusting 4 18.9
2020-Aug-04 19:05 221 1 gusting 6 18.9
2020-Aug-04 19:03 219 2 gusting 6 18.9
2020-Aug-04 18:55 236 2 gusting 6 18.9
2020-Aug-04 18:53 235 1 gusting 6 18.9
2020-Aug-04 18:45 228 3 gusting 9 19.4
2020-Aug-04 18:43 275 4 gusting 9 19.4
2020-Aug-04 18:35 265 4 gusting 6 20.0
2020-Aug-04 18:33 262 4 gusting 6 20.0
2020-Aug-04 18:25 251 2 gusting 7 20.0
2020-Aug-04 18:23 249 2 gusting 7 20.6
2020-Aug-04 18:15 270 4 gusting 8 20.6
2020-Aug-04 18:13 253 5 gusting 8 20.6
2020-Aug-04 18:05 259 3 gusting 6 21.1
2020-Aug-04 18:03 282 1 gusting 6 21.1